map of KRK home
KRK - Airport
Location
City:  Kraków, Malopolskie, Poland
Name:John Paul II International Airport
Old (Alt.):Balice
ICAO:EPKK
IATA:KRK

Details
Type:Airport (Aerodrome, Airfield)
Use:Public/Civil, International (customs port of entry)
Latitude:50°04'40"N (50.077731)
Longitude:19°47'05"E (19.784836)
Datum:WGS 1984
Elevation:791 ft (241 m)
Variation:5.49°E (WMM2015v2 magnetic declination)
0.15° annual change
Runways:1
Longest:8366 × 197 ft (2550 × 60 m), paved

Time
Time Zone:UTC+1 (DST+2)
Local Time:

Weather
METAR:EPKK 041400Z 22006KT 9999 FEW009 BKN011 01/M01 Q1029
TAF:EPKK 041130Z 0412/0512 27010KT 9999 BKN011
TEMPO 0412/0418 4000 -SN BR BKN006
BECMG 0418/0421 VRB02KT 4000 BR PROB40
TEMPO 0500/0506 1200 BR BKN004
BECMG 0507/0509 8000 SCT025

Related Locations
Nearby:
Farthest:CHT: 11558 mi / 18601 km
Waitangi [Tuuta], CIT, NZ

Find:

   beyond  
but within

Other Information
Maps:
NOTAMs:
Links:
Sources:

  
  • flag of Poland
  • flag of Malopolskie
  • flag of Kraków
  

Sectional Chart

Flight Planning
at skyvector.com

Satellite Image

Google Maps Satellite view

 

Copyright © 2004-2019 Karl L. Swartz. All rights reserved.
The Great Circle Mapper name and logo are trademarks of the Great Circle Mapper.
All other trademarks mentioned herein belong to their respective owners.
Please see credits for attibutions and further copyright information.

  Follow gcmap on Facebook Follow gcmap on Twitter GCmap on LinkedIn

hCard Microformat

Geo Microformat